Philadelphia, PA

9:01 PM EST on November 15, 2019 (GMT -0500)
Philadelphia International

Weather History for KPHL - May, 2019

Change the Weather History Date:

Thursday, May 16, 2019

  Actual Average Record
Temperature  
Mean Temperature 67 °F 64 °F  
Max Temperature 75 °F 74 °F 90 °F (1951)
Min Temperature 58 °F 54 °F 40 °F (1959)
Degree Days  
Heating Degree Days 0 3  
Month to date heating degree days 74 78  
Since 1 July heating degree days 4359 4568  
Cooling Degree Days 2 2  
Month to date cooling degree days 11 23  
Year to date cooling degree days 35 36  
Growing Degree Days 16 (Base 50)    
Moisture  
Dew Point 45 °F    
Average Humidity 48    
Maximum Humidity 67    
Minimum Humidity 29    
Precipitation  
Precipitation T in 0.13 in 2.03 in (1940)
Month to date precipitation 3.80 1.84  
Year to date precipitation 17.86 14.87  
Snow  
Snow 0.00 in 0.00 in 0.00 in ()
Month to date snowfall 0.0 0.0  
Since 1 July snowfall 17.1 22.4  
Snow Depth 0.00 in    
Sea Level Pressure  
Sea Level Pressure 29.87 in    
Wind  
Wind Speed 7 mph (WSW)    
Max Wind Speed 16 mph    
Max Gust Speed 24 mph    
Visibility 10 miles    
Events Rain    
T = Trace of Precipitation, MM = Missing Value Source: NWS Daily Summary

Daily Weather History Graph

Daily Weather History Graph

Search for Another Location

Airport or City:

Astronomy

May. 16, 2019 Rise Set
Actual Time 5:45 AM EDT 8:09 PM EDT
Civil Twilight 5:14 AM EDT 8:40 PM EDT
Nautical Twilight 4:36 AM EDT 9:18 PM EDT
Astronomical Twilight 3:54 AM EDT 10:00 PM EDT
Moon 5:46 PM EDT 4:41 AM EDT
Length of Visible Light 15h 25m
Length of Day
14h 24m
Waxing Gibbous, 94% of the Moon is Illuminated
May 16
Waxing Gibbous
May 18
Full
May 26
Last Quarter
Jun 3
New
Jun 10
First Quarter

Hourly Weather History & Observations

Time (EDT) Temp. Dew Point Humidity Pressure Visibility Wind Dir Wind Speed Gust Speed Precip Events Conditions
12:54 AM 63.0 °F 45.0 °F 52% 29.86 in 10.0 mi SW 10.4 mph - N/A   Overcast
1:54 AM 62.1 °F 46.0 °F 56% 29.85 in 10.0 mi SW 9.2 mph - N/A   Overcast
2:54 AM 63.0 °F 44.1 °F 50% 29.86 in 10.0 mi West 5.8 mph - N/A   Overcast
3:54 AM 62.1 °F 46.0 °F 56% 29.86 in 10.0 mi West 4.6 mph - 0.00 in Rain Light Rain
4:54 AM 59.0 °F 48.9 °F 69% 29.86 in 10.0 mi SW 6.9 mph - 0.00 in   Overcast
5:54 AM 59.0 °F 46.9 °F 64% 29.86 in 10.0 mi NNW 3.5 mph - N/A   Mostly Cloudy
6:54 AM 59.0 °F 46.9 °F 64% 29.89 in 10.0 mi WSW 8.1 mph - N/A   Mostly Cloudy
7:54 AM 59.0 °F 48.0 °F 67% 29.92 in 10.0 mi West 8.1 mph - N/A   Overcast
8:54 AM 61.0 °F 48.0 °F 62% 29.91 in 10.0 mi West 11.5 mph - N/A   Mostly Cloudy
9:54 AM 64.9 °F 48.0 °F 54% 29.91 in 10.0 mi West 8.1 mph - N/A   Scattered Clouds
10:54 AM 68.0 °F 45.0 °F 43% 29.89 in 10.0 mi West 9.2 mph - N/A   Scattered Clouds
11:54 AM 71.1 °F 46.9 °F 42% 29.88 in 10.0 mi WSW 10.4 mph - N/A   Scattered Clouds
12:54 PM 71.1 °F 43.0 °F 36% 29.87 in 10.0 mi WNW 10.4 mph - N/A   Scattered Clouds
1:54 PM 71.1 °F 44.1 °F 38% 29.87 in 10.0 mi Variable 4.6 mph - N/A   Scattered Clouds
2:54 PM 72.0 °F 41.0 °F 33% 29.86 in 10.0 mi WNW 9.2 mph - N/A   Mostly Cloudy
3:54 PM 73.9 °F 39.9 °F 29% 29.86 in 10.0 mi WNW 10.4 mph - N/A   Scattered Clouds
4:54 PM 73.9 °F 39.9 °F 29% 29.85 in 10.0 mi WNW 5.8 mph 18.4 mph N/A   Scattered Clouds
5:54 PM 73.0 °F 41.0 °F 31% 29.85 in 10.0 mi West 12.7 mph - N/A   Scattered Clouds
6:54 PM 73.9 °F 42.1 °F 32% 29.85 in 10.0 mi WNW 6.9 mph - N/A   Scattered Clouds
7:54 PM 71.1 °F 44.1 °F 38% 29.86 in 10.0 mi SW 6.9 mph - N/A   Mostly Cloudy
8:54 PM 66.9 °F 46.0 °F 47% 29.88 in 10.0 mi South 3.5 mph - N/A   Mostly Cloudy
9:54 PM 64.9 °F 48.0 °F 54% 29.88 in 10.0 mi SSW 6.9 mph - N/A   Scattered Clouds
10:54 PM 64.9 °F 48.0 °F 54% 29.89 in 10.0 mi SSW 6.9 mph - N/A   Overcast
11:54 PM 64.0 °F 51.1 °F 63% 29.90 in 10.0 mi SSW 5.8 mph - N/A   Overcast